Weather past 2 weeks in Jamestown, Saint Helena

Now
59 °F

Cool.


Feels Like: 57 °F
Forecast: 66 / 69 °F
Wind: 12 mph from East

Location: Saint Helena Island

Current Time: Aug 1, 2015 at 8:03:58 AM

Latest Report: Aug 1, 2015 at 7:00 AM


Visibility: N/A

Pressure: 30.11 "Hg

Humidity: 85%

Dew point: 54 °F

Location of JamestownLocation

Historic Weather in Jamestown — Graph

°F

Jamestown temperature yesterday

Maximum temperature yesterday: 62 °F (at 1:00 PM)
Minimum temperature yesterday: 57 °F (at 9:00 AM)
Average temperature yesterday: 59 °F

Past Weeks' High & Low Weather Summary

 TemperatureHumidityPressure
High64 °F (Jul 19, 2:00 PM)100% (Jul 24, 6:00 PM)30.27 "Hg (Jul 24, 6:00 PM)
Low56 °F (Jul 24, 4:00 PM)65% (Jul 23, 5:00 AM)30.10 "Hg (Jul 19, 4:00 PM)
Average59 °F88%30.18 "Hg
* Reported Jul 17 7:00 AM — Aug 1 6:00 AM, Jamestown, Weather by CustomWeather, © 2015

Note: Actual official high and low records may vary slightly from our data, if they occured in-between our weather recording intervals... More about our weather records

Advertising

Jamestown weather history for previous 24 hours

 ConditionsComfort  
Time TempWeatherWind HumidityBarometerVisibility
6:00 AM
Sat, Aug 1
59 °FCool.12 mph81%30.11 "HgN/A
4:00 AM59 °FCool.14 mph87%30.10 "HgN/A
2:00 AM59 °FCool.8 mph85%30.14 "HgN/A
1:00 AM58 °FCool.12 mph91%30.16 "HgN/A
11:00 PM
Fri, Jul 31
60 °FCool.13 mph77%30.17 "HgN/A
10:00 PM60 °FCool.15 mph76%30.17 "HgN/A
9:00 PM60 °FCool.16 mph71%30.16 "HgN/A
8:00 PM60 °FCool.20 mph82%30.14 "HgN/A
7:00 PM60 °FCool.20 mph83%30.13 "HgN/A
6:00 PM60 °FCool.21 mph85%30.11 "HgN/A
5:00 PM60 °FCool.18 mph86%30.11 "HgN/A
4:00 PM60 °FCool.20 mph84%30.11 "HgN/A
3:00 PM61 °FOvercast.21 mph80%30.12 "Hg9 mi
2:00 PM61 °FOvercast.20 mph77%30.14 "Hg12 mi
1:00 PM62 °FOvercast.21 mph75%30.16 "Hg19 mi
12:00 PM61 °FLow clouds.22 mph79%30.19 "Hg2 mi
11:00 AM57 °FLow clouds.18 mph99%30.23 "Hg1 mi
10:00 AM57 °FSprinkles. Low clouds.24 mph98%30.23 "Hg1 mi
9:00 AM57 °FDrizzle. Low clouds.21 mph98%30.22 "Hg1 mi
8:00 AM59 °FCool.23 mph83%30.19 "HgN/A
Weather by CustomWeather, © 2015

See weather overviewHow to use our weather pages